Overview Statistics Trail Chart Weather Telemetry Raw packets
 

This is the latest recevied weather packets stored in our database for station/object N4UUJ-1. If no packets are shown the sender has not sent any weather packets the latest 10 day(s).

<< 4 5 6 7 8 9 10 >>
Time Temp. Humidity Pressure Rain* Wind** Luminosity Snow
1788355441 23.89° C 75% 1024 hPa 0 mm - - -
1788353640 21.11° C 75% 1023.9 hPa 0 mm - - -
1788351839 18.89° C 75% 1023.5 hPa 0 mm - - -
1788350038 18.89° C 75% 1023.5 hPa 0 mm - - -
1788348237 18.33° C 75% 1023.2 hPa 0 mm - - -
1788346436 18.89° C 75% 1023 hPa 0 mm - - -
1788344635 18.89° C 75% 1022.9 hPa 0 mm - - -
1788342834 18.89° C 75% 1022.7 hPa 0 mm - - -
1788341033 19.44° C 75% 1022.5 hPa 0 mm - - -
1788339232 19.44° C 75% 1022.3 hPa 0 mm - - -
1788337431 19.44° C 75% 1022.2 hPa 0 mm - - -
1788335630 19.44° C 75% 1022 hPa 0 mm - - -
1788333829 19.44° C 75% 1022.1 hPa 0 mm - - -
1788332028 19.44° C 75% 1022.2 hPa 0 mm - - -
1788330227 19.44° C 75% 1022.3 hPa 0 mm - - -
1788328426 20° C 75% 1022.4 hPa 0 mm - - -
1788326625 20° C 75% 1022.5 hPa 0 mm - - -
1788324824 20.56° C 75% 1022.5 hPa 0 mm - - -
1788323023 20.56° C 75% 1022.6 hPa 0 mm - - -
1788321222 21.11° C 75% 1022.6 hPa 0 mm - - -
1788319421 21.11° C 75% 1022.7 hPa 0 mm - - -
1788317620 21.67° C 75% 1022.8 hPa 0 mm - - -
1788315819 22.22° C 75% 1022.6 hPa 0 mm - - -
1788314018 22.78° C 75% 1022.6 hPa 0 mm - - -
1788312217 23.33° C 75% 1022.4 hPa 0 mm - - -

* Rain latest hour (hover to see other rain measurements)
** Current wind speed in m/s (hover to see current wind gust speed)